[[[{"header":{"parameterUnit":"kt","parameterCategory":2,"dx":1,"dy":1,"la1":30.253999710083008,"la2":30.299108505249023,"lo1":-89.0895004272461,"lo2":-89.04439544677734,"nx":28,"ny":28,"refTime":"2022-10-08T21:00:00:Z","depth":0,"parameterNumber":1,"parameterNumberName":"U-component_of_WINDS"},"data":[-4.0854,-4.0968,-4.0968,-4.1097,-4.1118,-4.1206,-4.1237,-4.1276,-4.1307,-4.141,-4.1468,-4.1477,-4.1506,-4.1574,-4.1636,-4.1639,-4.1666,-4.1707,-4.1703,-4.1522,-4.1496,-4.1472,-4.1447,-4.1712,-4.1713,-4.1893,-4.1895,-4.1896,-4.0721,-4.0744,-4.0812,-4.0878,-4.0936,-4.0896,-4.0944,-4.0995,-4.1074,-4.1112,-4.117,-4.1259,-4.1329,-4.1344,-4.141,-4.1462,-4.1447,-4.148,-4.1478,-4.1483,-4.1288,-4.1261,-4.1491,-4.1491,-4.1491,-4.1491,-4.1491,-4.1491,-4.0481,-4.0549,-4.0589,-4.0662,-4.0694,-4.0738,-4.0802,-4.0812,-4.0878,-4.0948,-4.0933,-4.1021,-4.1058,-4.1136,-4.1161,-4.1229,-4.1192,-4.1228,-4.1237,-4.1248,-4.126,-4.1004,-4.124,-4.1239,-4.1238,-4.1238,-4.1237,0,-4.0305,-4.03,-4.0365,-4.0431,-4.0484,-4.0533,-4.0578,-4.0617,-4.0604,-4.0659,-4.0736,-4.0781,-4.0867,-4.094,-4.1001,-4.102,-4.0984,-4.0979,-4.1004,-4.1016,-4.1018,-4.1021,-4.0706,-4.0973,-4.097,-4.0969,-4.0968,-4.0967,-4.0065,-4.0143,-4.0183,-4.0229,-4.0254,-4.0327,-4.037,-4.0353,-4.0399,-4.0451,-4.051,-4.0582,-4.0639,-4.0762,-4.0772,-4.0836,-4.082,-4.0923,-4.0829,-4.0836,-4.0825,-4.0822,-4.0831,-4.0942,-4.0945,-4.0948,-4.095,0,-3.993,-3.9928,-4.0049,-4.0081,-4.0091,-4.0174,-4.02,-4.0265,-4.0268,-4.0358,-4.0378,-4.0382,-4.0458,-4.0451,-4.0535,-4.0529,-4.0664,-4.0645,-4.0652,-4.0649,-4.0742,-4.0735,-4.1041,-4.1081,-4.0802,-4.0805,-4.0807,0,-3.9726,-3.9828,-3.982,-3.9891,-4.0004,-3.9984,-4.0097,-4.011,-4.0142,-4.0213,-4.0171,-4.0238,-4.0218,-4.0284,-4.0275,-4.0384,-4.0399,-4.0402,-4.0399,-4.0408,-4.0408,-4.0434,-4.0422,-4.0385,-4.0383,-4.0382,-4.0381,0,-3.9517,-3.9632,-3.9746,-3.9772,-3.9815,-3.9869,-3.9889,-3.9924,-3.9966,-4.0019,-4.0046,-4.0108,-4.0143,-4.0191,-4.018,-4.0117,-4.0311,-4.0223,-4.0315,-4.0315,-4.0361,-4.0359,-4.0629,-4.0379,-4.0379,-4.0378,-4.0377,0,-3.9353,-3.9409,-3.9573,-3.9608,-3.9639,-3.9713,-3.9774,-3.9836,-3.9876,-3.9875,-3.9916,-3.9888,-3.9981,-3.9894,-4.0022,-3.9944,-3.998,-3.999,-3.9997,-4.0007,-3.9912,-4.0069,-4.0324,-4.0352,-4.0013,-4.001,-4.0008,0,-3.9117,-3.9281,-3.9266,-3.9422,-3.9497,-3.9446,-3.9527,-3.9564,-3.9571,-3.9634,-3.964,-3.9713,-3.9646,-3.9668,-3.9732,-3.9741,-3.9842,-3.9727,-3.982,-3.9824,-3.9815,-4.0049,-4.0091,-4.0268,-3.9968,-3.9973,-3.9976,0,-3.8934,-3.8987,-3.9016,-3.9045,-3.9091,-3.9153,-3.9246,-3.9314,-3.9358,-3.9402,-3.948,-3.958,-3.9535,-3.9571,-3.9554,-3.9621,-3.9773,-3.9563,-3.9564,-3.9604,-3.9947,-3.9987,-4.0017,-3.9747,-3.9752,-3.9755,-3.9944,0,-3.8691,-3.8772,-3.8849,-3.8914,-3.8961,-3.9057,-3.9052,-3.9101,-3.9081,-3.9086,-3.9198,-3.9226,-3.9294,-3.9325,-3.9305,-3.946,-3.9434,-3.9384,-3.9302,-3.9454,-3.9517,-3.9542,-3.9209,-3.9207,-3.9205,-3.9203,0,0,-3.8467,-3.8584,-3.8564,-3.8654,-3.8693,-3.8639,-3.8743,-3.8773,-3.8837,-3.8864,-3.8818,-3.8964,-3.8988,-3.9126,-3.9173,-3.9199,-3.9227,-3.9174,-3.9381,-3.9401,-3.9419,-3.9486,-3.9512,-3.9199,-3.9198,-3.9198,-3.9197,0,-3.8378,-3.8405,-3.8508,-3.8539,-3.8585,-3.8585,-3.861,-3.8645,-3.8653,-3.8763,-3.8718,-3.8784,-3.89,-3.8933,-3.8965,-3.9156,-3.9119,-3.9177,-3.9283,-3.936,-3.9382,-3.9402,-3.9473,-3.9498,-3.9192,-3.9192,-3.9192,0,-3.8199,-3.8226,-3.8275,-3.8359,-3.8388,-3.8466,-3.8378,-3.8463,-3.8521,-3.8457,-3.8567,-3.8582,-3.8624,-3.8754,-3.8812,-3.8771,-3.9021,-3.894,-3.8953,-3.896,-3.9034,-3.9061,-3.9085,-3.8767,-3.8765,-3.8764,0,0,-3.8123,-3.8198,-3.8222,-3.834,-3.8361,-3.8363,-3.8403,-3.8388,-3.8428,-3.8445,-3.8463,-3.8503,-3.857,-3.8615,-3.8678,-3.8821,-3.8829,-3.8888,-3.8908,-3.8924,-3.894,-3.9019,-3.9045,-3.8758,-3.8758,-3.8758,0,0,-3.8087,-3.8119,-3.8092,-3.8229,-3.8269,-3.8299,-3.8372,-3.8339,-3.8395,-3.8384,-3.8361,-3.8371,-3.8492,-3.8507,-3.8435,-3.8649,-3.8567,-3.8584,-3.8635,-3.866,-3.868,-3.8675,-3.8349,0,0,0,0,0,-3.7994,-3.8115,-3.809,-3.8113,-3.8219,-3.8313,-3.8326,-3.8311,-3.8254,-3.8311,-3.8321,-3.8277,-3.8464,-3.8399,-3.8421,-3.8503,-3.8688,-3.87,-3.8712,-3.8812,-3.8838,-3.886,0,0,0,0,0,0,-3.8003,-3.803,-3.8087,-3.8123,-3.8147,-3.8308,-3.8208,-3.8207,-3.8247,-3.8237,-3.8277,-3.8279,-3.8267,-3.8387,-3.8407,-3.8485,-3.8342,-3.8693,-3.8703,-3.8713,-3.8821,-3.8842,-3.8861,0,0,0,0,0,-3.8009,-3.8031,-3.8206,-3.8121,-3.8142,-3.815,-3.8203,-3.8202,-3.8232,-3.8248,-3.8249,-3.8217,-3.8269,-3.8285,-3.8399,-3.8476,-3.8328,-3.8336,-3.87,-3.8708,-3.8716,-3.8831,0,0,0,0,0,0,-3.8014,-3.803,-3.8209,-3.8215,-3.8074,-3.8141,-3.8151,-3.8198,-3.824,-3.8242,-3.8187,-3.8179,-3.8273,-3.8284,-3.8296,-3.8475,-3.8317,-3.8325,-3.833,-3.8706,-3.8713,-3.8718,0,0,0,0,0,0,-3.8018,-3.8035,-3.8212,-3.8154,-3.8153,-3.8132,-3.8141,-3.8235,-3.8241,-3.8176,-3.8171,-3.8183,-3.8254,-3.8284,-3.8293,-3.8441,-3.8309,-3.8316,-3.8321,-3.8324,-3.8711,-3.8717,0,0,0,0,0,0,-3.8025,-3.804,-3.8153,-3.8152,-3.815,-3.8213,-3.8215,-3.8324,-3.8193,-3.8175,-3.8181,-3.8175,-3.8255,-3.8264,-3.8292,-3.8436,-3.8439,-3.8309,-3.8314,-3.8317,-3.832,0,0,0,0,0,0,0,-3.8031,-3.7936,-3.8176,-3.815,-3.8148,-3.8267,-3.8269,-3.827,-3.8192,-3.8187,-3.8182,-3.8177,-3.8267,-3.8275,-3.8283,-3.8431,0,0,-3.8308,-3.8312,0,0,0,0,0,0,0,0,-3.793,-3.7935,-3.8176,-3.8177,-3.8179,-3.8267,-3.8269,-3.827,-3.8191,-3.8187,-3.8183,-3.8179,-3.8269,-3.8276,-3.8282,0,0,0,0,0,0,0,0,0,0,0,0,0,0,0,-3.8176,-3.8177,0,-3.8268,-3.8269,-3.827,-3.819,-3.8187,-3.8184,-3.8181,-3.8271,-3.8276,-3.8282,0,0,0,0,0,0,0,0,0,0,0,0,0,0,0,0,0,0,0,0,0,0,0,0,0,0,0,0,0,0,0,0,0,0,0,0,0,0,0,0,0,0,0,0,0,0,0,0,0,0,0,0,0,0,0,0,0,0,0,0,0,0,0,0,0,0,0,0,0]}],[{"header":{"parameterUnit":"kt","parameterCategory":2,"dx":1,"dy":1,"la1":30.253999710083008,"la2":30.299108505249023,"lo1":-89.0895004272461,"lo2":-89.04439544677734,"nx":28,"ny":28,"refTime":"2022-10-08T21:00:00:Z","depth":0,"parameterNumber":2,"parameterNumberName":"V-component_of_WINDS"},"data":[-11.0151,-11.0358,-11.0373,-11.0615,-11.0667,-11.0834,-11.0897,-11.0978,-11.1046,-11.1242,-11.1355,-11.1385,-11.1453,-11.1589,-11.1709,-11.1719,-11.177,-11.1835,-11.1835,-11.1534,-11.1493,-11.1454,-11.1408,-11.1846,-11.1847,-11.2146,-11.2149,-11.2151,-10.9933,-10.9989,-11.0121,-11.0257,-11.037,-11.0316,-11.0417,-11.0513,-11.0661,-11.0745,-11.0857,-11.1028,-11.1163,-11.1208,-11.1338,-11.1431,-11.1411,-11.1466,-11.146,-11.1471,-11.1149,-11.1101,-11.148,-11.148,-11.148,-11.148,-11.148,-11.148,-10.954,-10.9664,-10.9755,-10.9897,-10.9968,-11.0058,-11.0176,-11.0212,-11.0338,-11.0479,-11.0465,-11.063,-11.0712,-11.0871,-11.0926,-11.1053,-11.0993,-11.1054,-11.107,-11.1086,-11.1105,-11.0675,-11.1074,-11.1073,-11.1072,-11.1071,-11.107,0,-10.9257,-10.9261,-10.9386,-10.9518,-10.9621,-10.9722,-10.9816,-10.9889,-10.9892,-10.9994,-11.0143,-11.023,-11.0399,-11.0537,-11.0659,-11.0702,-11.0651,-11.0646,-11.0689,-11.07,-11.0696,-11.0703,-11.018,-11.0634,-11.063,-11.0627,-11.0625,-11.0624,-10.8863,-10.9005,-10.9104,-10.919,-10.9245,-10.9384,-10.9468,-10.946,-10.9549,-10.966,-10.9766,-10.9905,-11.0016,-11.0247,-11.028,-11.0405,-11.0381,-11.0554,-11.0399,-11.0405,-11.0386,-11.0379,-11.0393,-11.0584,-11.0589,-11.0593,-11.0597,0,-10.8641,-10.866,-10.8882,-10.8963,-10.8988,-10.9135,-10.9203,-10.9323,-10.9341,-10.9509,-10.9547,-10.9575,-10.9718,-10.9724,-10.9886,-10.9884,-11.0122,-11.0095,-11.0096,-11.0091,-11.0248,-11.0234,-11.0752,-11.082,-11.0363,-11.0367,-11.0371,0,-10.8313,-10.8497,-10.8514,-10.8642,-10.8846,-10.8833,-10.9034,-10.907,-10.9141,-10.9272,-10.9217,-10.934,-10.9327,-10.945,-10.9447,-10.9642,-10.9671,-10.9682,-10.9679,-10.9689,-10.9688,-10.9734,-10.9713,-10.9664,-10.9662,-10.9659,-10.9657,0,-10.7964,-10.8187,-10.8394,-10.8447,-10.8551,-10.8647,-10.8694,-10.8772,-10.8853,-10.8957,-10.901,-10.9131,-10.9198,-10.9292,-10.9288,-10.9183,-10.9525,-10.938,-10.9536,-10.9537,-10.9612,-10.9608,-11.0065,-10.9654,-10.9653,-10.9652,-10.9651,0,-10.7701,-10.7813,-10.8109,-10.8194,-10.8252,-10.8387,-10.8509,-10.8625,-10.871,-10.8718,-10.8799,-10.8762,-10.8932,-10.8788,-10.9021,-10.8887,-10.8955,-10.8979,-10.899,-10.9007,-10.8846,-10.9105,-10.9539,-10.9585,-10.9021,-10.9016,-10.9011,0,-10.7298,-10.7601,-10.7593,-10.7873,-10.8014,-10.7944,-10.8092,-10.817,-10.8193,-10.8312,-10.8335,-10.847,-10.8363,-10.8406,-10.8521,-10.8549,-10.8724,-10.8525,-10.8695,-10.8701,-10.8678,-10.9077,-10.9141,-10.9443,-10.8944,-10.8951,-10.8956,0,-10.6988,-10.7113,-10.7164,-10.7224,-10.7326,-10.7442,-10.7612,-10.7744,-10.7825,-10.7916,-10.8058,-10.8245,-10.8173,-10.8243,-10.8224,-10.8344,-10.8605,-10.8249,-10.825,-10.8315,-10.8909,-10.897,-10.9021,-10.8565,-10.8573,-10.858,-10.8903,0,-10.6591,-10.6744,-10.688,-10.7013,-10.7103,-10.7277,-10.7286,-10.7378,-10.7353,-10.7372,-10.7578,-10.7639,-10.777,-10.7826,-10.7801,-10.8072,-10.8027,-10.7947,-10.7808,-10.8068,-10.8175,-10.8218,-10.7649,-10.7645,-10.7641,-10.7638,0,0,-10.6202,-10.642,-10.6404,-10.657,-10.6645,-10.6568,-10.6754,-10.6817,-10.6945,-10.6998,-10.692,-10.7195,-10.7246,-10.7495,-10.7577,-10.7628,-10.7677,-10.7585,-10.7944,-10.7978,-10.8009,-10.8123,-10.8168,-10.7632,-10.7631,-10.763,-10.7629,0,-10.6059,-10.612,-10.6305,-10.6371,-10.6467,-10.6479,-10.6524,-10.6604,-10.6625,-10.6826,-10.6757,-10.6879,-10.7097,-10.7163,-10.7224,-10.7555,-10.7495,-10.7594,-10.7773,-10.7909,-10.7947,-10.7981,-10.8101,-10.8144,-10.762,-10.7621,-10.7621,0,-10.5756,-10.5818,-10.5908,-10.6075,-10.6136,-10.628,-10.6137,-10.6294,-10.64,-10.6303,-10.6503,-10.6537,-10.6623,-10.6857,-10.6961,-10.6892,-10.733,-10.7191,-10.7212,-10.7224,-10.7356,-10.7402,-10.7444,-10.6899,-10.6896,-10.6894,0,0,-10.5631,-10.5772,-10.5833,-10.6045,-10.6089,-10.6108,-10.6184,-10.6166,-10.6248,-10.6281,-10.6323,-10.6402,-10.6528,-10.6612,-10.673,-10.6985,-10.7001,-10.7102,-10.7136,-10.7164,-10.719,-10.7329,-10.7375,-10.6885,-10.6884,-10.6884,0,0,-10.557,-10.5652,-10.5612,-10.5859,-10.5941,-10.6012,-10.614,-10.6092,-10.6199,-10.618,-10.6153,-10.6173,-10.639,-10.6425,-10.6298,-10.668,-10.6541,-10.6571,-10.6649,-10.6692,-10.6726,-10.6713,-10.6156,0,0,0,0,0,-10.5429,-10.5642,-10.5605,-10.5648,-10.5856,-10.6033,-10.6059,-10.6044,-10.5948,-10.605,-10.6077,-10.6007,-10.6351,-10.6239,-10.6279,-10.642,-10.6762,-10.6784,-10.6805,-10.6965,-10.701,-10.7048,0,0,0,0,0,0,-10.5445,-10.5497,-10.5599,-10.5681,-10.5727,-10.6025,-10.5859,-10.586,-10.5937,-10.5921,-10.6004,-10.6009,-10.5997,-10.6216,-10.6253,-10.6388,-10.6144,-10.6771,-10.6789,-10.6806,-10.6981,-10.7017,-10.7049,0,0,0,0,0,-10.5458,-10.55,-10.5839,-10.5677,-10.5718,-10.5749,-10.585,-10.5851,-10.5909,-10.5951,-10.5955,-10.5891,-10.6002,-10.6031,-10.6238,-10.6372,-10.6118,-10.6132,-10.6783,-10.6797,-10.681,-10.6999,0,0,0,0,0,0,-10.5468,-10.55,-10.5846,-10.5858,-10.5596,-10.5732,-10.5753,-10.5842,-10.5934,-10.594,-10.5836,-10.5822,-10.6007,-10.6029,-10.6052,-10.6368,-10.6097,-10.6111,-10.612,-10.6794,-10.6805,-10.6815,0,0,0,0,0,0,-10.5477,-10.5511,-10.5852,-10.575,-10.575,-10.5717,-10.5736,-10.5907,-10.5936,-10.5813,-10.5804,-10.5829,-10.5971,-10.6029,-10.6047,-10.6315,-10.6081,-10.6095,-10.6104,-10.611,-10.6803,-10.6812,0,0,0,0,0,0,-10.5491,-10.552,-10.5747,-10.5747,-10.5746,-10.5876,-10.5867,-10.608,-10.5853,-10.581,-10.5831,-10.5822,-10.5973,-10.599,-10.6043,-10.6305,-10.6313,-10.6082,-10.6091,-10.6097,-10.6102,0,0,0,0,0,0,0,-10.5502,-10.5316,-10.5778,-10.5745,-10.5743,-10.5966,-10.5969,-10.5972,-10.585,-10.5842,-10.5834,-10.5826,-10.6005,-10.602,-10.6034,-10.6296,0,0,-10.6081,-10.6087,0,0,0,0,0,0,0,0,-10.5303,-10.5313,-10.5778,-10.5781,-10.5783,-10.5966,-10.5969,-10.5971,-10.5849,-10.5842,-10.5835,-10.5829,-10.6009,-10.6021,-10.6033,0,0,0,0,0,0,0,0,0,0,0,0,0,0,0,-10.5779,-10.5781,0,-10.5967,-10.5969,-10.5971,-10.5848,-10.5842,-10.5837,-10.5831,-10.6012,-10.6022,-10.6032,0,0,0,0,0,0,0,0,0,0,0,0,0,0,0,0,0,0,0,0,0,0,0,0,0,0,0,0,0,0,0,0,0,0,0,0,0,0,0,0,0,0,0,0,0,0,0,0,0,0,0,0,0,0,0,0,0,0,0,0,0,0,0,0,0,0,0,0,0]}]]]